Weather History for KGCM - January, 2013

Change the Weather History Date:

Thursday, January 17, 2013

  Actual Average (KTUL) Record (KTUL)
Temperature  
Mean Temperature 36 °F 38 °F  
Max Temperature 50 °F 48 °F 73 °F (1952)
Min Temperature 23 °F 27 °F -3 °F (1930)
Degree Days  
Heating Degree Days 28 27  
Month to date heating degree days 474  
Since 1 July heating degree days 1902  
Moisture  
Dew Point 27 °F    
Average Humidity 69    
Maximum Humidity 87    
Minimum Humidity 43    
Precipitation  
Precipitation 0.00 in 0.05 in 0.94 in (2004)
Month to date precipitation 0.88  
Year to date precipitation 0.88  
Sea Level Pressure  
Sea Level Pressure 30.42 in    
Wind  
Wind Speed 5 mph (NNE)    
Max Wind Speed 14 mph    
Max Gust Speed 21 mph    
Visibility 10 miles    
Events      
T = Trace of Precipitation, MM = Missing Value Source: NWS Daily Summary

Daily Weather History Graph

Daily Weather History Graph

Search for Another Location

Airport or City:

Trip Planner

Search our weather history database for the weather conditions in past years. The results will help you decide how hot, cold, wet, or windy it might be!

Date:

Astronomy

Jan. 17, 2013 Rise Set
Actual Time 7:31 AM CST 5:32 PM CST
Civil Twilight 7:03 AM CST 6:00 PM CST
Nautical Twilight 6:32 AM CST 6:32 PM CST
Astronomical Twilight 6:01 AM CST 7:03 PM CST
Moon 10:52 AM CST (1/17) No Moon Set
Length of Visible Light 10h 56m
Length of Day
10h 01m
Waxing Crescent, 38% of the Moon is Illuminated
Jan 17
Waxing Crescent
Jan 18
First Quarter
Jan 26
Full
Feb 3
Last Quarter
Feb 10
New

Hourly Weather History & Observations

Time (CST) Temp. Windchill Dew Point Humidity Pressure Visibility Wind Dir Wind Speed Gust Speed Precip Events Conditions
12:15 AM 28.4 °F 23.3 °F 21.2 °F 74% 30.24 in 10.0 mi South 4.6 mph - N/A   Clear
12:35 AM 28.4 °F 23.3 °F 21.2 °F 74% 30.24 in 10.0 mi SSE 4.6 mph - N/A   Clear
1:15 AM 28.4 °F 24.6 °F 21.2 °F 74% 30.25 in 10.0 mi SSW 3.5 mph - N/A   Clear
1:35 AM 26.6 °F - 21.2 °F 80% 30.26 in 10.0 mi Calm Calm - N/A   Clear
1:55 AM 28.4 °F - 19.4 °F 69% 30.26 in 10.0 mi Calm Calm - N/A   Clear
2:15 AM 24.8 °F - 19.4 °F 80% 30.27 in 10.0 mi Calm Calm - N/A   Clear
2:35 AM 26.6 °F - 19.4 °F 74% 30.28 in 10.0 mi Calm Calm - N/A   Clear
2:55 AM 28.4 °F 24.6 °F 19.4 °F 69% 30.28 in 10.0 mi West 3.5 mph - N/A   Clear
3:15 AM 26.6 °F - 19.4 °F 74% 30.29 in 10.0 mi Calm Calm - N/A   Clear
3:35 AM 23.0 °F - 19.4 °F 86% 30.29 in 10.0 mi Calm Calm - N/A   Clear
3:55 AM 23.0 °F 18.4 °F 19.4 °F 86% 30.30 in 10.0 mi NW 3.5 mph - N/A   Clear
4:15 AM 23.0 °F - 19.4 °F 86% 30.31 in 10.0 mi Calm Calm - N/A   Clear
4:35 AM 28.4 °F - 21.2 °F 74% 30.31 in 10.0 mi Calm Calm - N/A   Clear
4:55 AM 30.2 °F 25.4 °F 23.0 °F 75% 30.33 in 10.0 mi NW 4.6 mph - N/A   Clear
5:15 AM 32.0 °F 25.6 °F 26.6 °F 80% 30.33 in 10.0 mi North 6.9 mph - N/A   Clear
5:35 AM 32.0 °F 24.8 °F 26.6 °F 80% 30.34 in 10.0 mi North 8.1 mph - N/A   Clear
5:55 AM 32.0 °F 24.8 °F 28.4 °F 87% 30.35 in 10.0 mi NNW 8.1 mph - N/A   Clear
6:15 AM 32.0 °F 25.6 °F 28.4 °F 87% 30.36 in 10.0 mi North 6.9 mph - N/A   Clear
6:35 AM 32.0 °F 25.6 °F 28.4 °F 87% 30.38 in 10.0 mi NNW 6.9 mph - N/A   Clear
6:55 AM 32.0 °F 24.2 °F 28.4 °F 87% 30.39 in 10.0 mi NNW 9.2 mph - N/A   Clear
7:15 AM 32.0 °F 24.8 °F 28.4 °F 87% 30.39 in 10.0 mi North 8.1 mph - N/A   Clear
7:35 AM 32.0 °F 24.8 °F 28.4 °F 87% 30.40 in 10.0 mi North 8.1 mph - N/A   Clear
7:55 AM 32.0 °F 24.8 °F 28.4 °F 87% 30.42 in 10.0 mi North 8.1 mph - N/A   Clear
8:15 AM 33.8 °F 27.7 °F 30.2 °F 87% 30.43 in 10.0 mi North 6.9 mph - N/A   Clear
8:35 AM 33.8 °F 27.0 °F 30.2 °F 87% 30.43 in 10.0 mi North 8.1 mph - N/A   Clear
8:55 AM 35.6 °F 28.0 °F 30.2 °F 81% 30.43 in 10.0 mi North 10.4 mph - N/A   Clear
9:15 AM 37.4 °F 30.3 °F 32.0 °F 81% 30.44 in 10.0 mi North 10.4 mph - N/A   Clear
9:35 AM 39.2 °F 32.5 °F 32.0 °F 75% 30.45 in 10.0 mi North 10.4 mph 17.3 mph N/A   Clear
9:55 AM 41.0 °F 34.7 °F 32.0 °F 70% 30.46 in 10.0 mi North 10.4 mph 17.3 mph N/A   Clear
10:15 AM 41.0 °F 33.5 °F 32.0 °F 70% 30.47 in 10.0 mi NNE 13.8 mph 18.4 mph N/A   Clear
10:35 AM 42.8 °F 36.2 °F 32.0 °F 66% 30.48 in 10.0 mi North 12.7 mph 17.3 mph N/A   Clear
10:55 AM 42.8 °F 37.0 °F 32.0 °F 66% 30.48 in 10.0 mi NNE 10.4 mph - N/A   Clear
11:15 AM 44.6 °F 39.2 °F 32.0 °F 61% 30.48 in 10.0 mi NNE 10.4 mph - N/A   Clear
11:35 AM 44.6 °F 39.7 °F 32.0 °F 61% 30.48 in 10.0 mi North 9.2 mph - N/A   Clear
11:55 AM 46.4 °F 40.7 °F 30.2 °F 53% 30.47 in 10.0 mi NNE 12.7 mph 17.3 mph N/A   Clear
12:15 PM 46.4 °F 40.7 °F 30.2 °F 53% 30.47 in 10.0 mi NNE 12.7 mph - N/A   Clear
12:35 PM 48.2 °F - 32.0 °F 54% 30.46 in 10.0 mi North 12.7 mph 18.4 mph N/A   Clear
12:55 PM 48.2 °F - 30.2 °F 50% 30.45 in 10.0 mi North 8.1 mph - N/A   Clear
1:15 PM 50.0 °F - 30.2 °F 47% 30.45 in 10.0 mi North 13.8 mph 18.4 mph N/A   Clear
1:35 PM 50.0 °F - 30.2 °F 47% 30.46 in 10.0 mi NNE 13.8 mph 20.7 mph N/A   Clear
1:55 PM 50.0 °F - 30.2 °F 47% 30.45 in 10.0 mi North 12.7 mph 17.3 mph N/A   Clear
2:15 PM 50.0 °F - 30.2 °F 47% 30.45 in 10.0 mi North 9.2 mph 17.3 mph N/A   Clear
2:35 PM 50.0 °F - 28.4 °F 43% 30.45 in 10.0 mi NNE 9.2 mph - N/A   Clear
2:55 PM 50.0 °F - 28.4 °F 43% 30.45 in 10.0 mi NNE 6.9 mph - N/A   Clear
3:15 PM 50.0 °F - 28.4 °F 43% 30.45 in 10.0 mi North 8.1 mph - N/A   Clear
3:35 PM 50.0 °F - 28.4 °F 43% 30.46 in 10.0 mi North 10.4 mph - N/A   Clear
3:55 PM 50.0 °F - 28.4 °F 43% 30.46 in 10.0 mi NE 8.1 mph - N/A   Clear
4:15 PM 50.0 °F - 28.4 °F 43% 30.46 in 10.0 mi NNE 6.9 mph - N/A   Clear
4:35 PM 50.0 °F - 28.4 °F 43% 30.47 in 10.0 mi NNE 9.2 mph - N/A   Clear
4:55 PM 50.0 °F - 28.4 °F 43% 30.47 in 10.0 mi NE 5.8 mph - N/A   Clear
5:15 PM 46.4 °F 44.3 °F 28.4 °F 50% 30.48 in 10.0 mi NE 4.6 mph - N/A   Clear
5:35 PM 42.8 °F 40.1 °F 28.4 °F 57% 30.48 in 10.0 mi ENE 4.6 mph - N/A   Clear
5:55 PM 41.0 °F 39.0 °F 28.4 °F 61% 30.48 in 10.0 mi ENE 3.5 mph - N/A   Clear
6:15 PM 41.0 °F - 28.4 °F 61% 30.49 in 10.0 mi Calm Calm - N/A   Clear
6:35 PM 35.6 °F - 26.6 °F 70% 30.49 in 10.0 mi Calm Calm - N/A   Clear
6:55 PM 35.6 °F 32.8 °F 28.4 °F 75% 30.50 in 10.0 mi ENE 3.5 mph - N/A   Clear
7:15 PM 35.6 °F 31.7 °F 26.6 °F 70% 30.51 in 10.0 mi ENE 4.6 mph - N/A   Clear
7:35 PM 33.8 °F 30.8 °F 26.6 °F 75% 30.51 in 10.0 mi NE 3.5 mph - N/A   Clear
8:15 PM 33.8 °F - 26.6 °F 75% 30.51 in 10.0 mi Calm Calm - N/A   Clear
8:35 PM 33.8 °F - 26.6 °F 75% 30.51 in 10.0 mi Calm Calm - N/A   Clear
8:55 PM 32.0 °F 28.7 °F 26.6 °F 80% 30.51 in 10.0 mi ESE 3.5 mph - N/A   Clear
9:15 PM 33.8 °F - 28.4 °F 81% 30.51 in 10.0 mi Calm Calm - N/A   Clear
9:35 PM 32.0 °F 28.7 °F 26.6 °F 80% 30.51 in 10.0 mi ESE 3.5 mph - N/A   Clear
9:55 PM 32.0 °F 28.7 °F 26.6 °F 80% 30.51 in 10.0 mi SE 3.5 mph - N/A   Clear
11:15 PM 32.0 °F 28.7 °F 26.6 °F 80% 30.51 in 10.0 mi ESE 3.5 mph - N/A   Clear
11:35 PM 32.0 °F - 26.6 °F 80% 30.51 in 10.0 mi Calm Calm - N/A   Clear
11:55 PM 32.0 °F - 26.6 °F 80% 30.51 in 10.0 mi Calm Calm - N/A   Clear